Regional Weather Roundup
Issued by NWS Green Bay, WI

Home | Current Version | Previous Version | Text Only | Print | Product List | Glossary On
Versions: 1 2 3 4 5 6 7 8 9 10 11 12 13 14 15 16 17 18 19 20 21 22 23 24 25 26 27 28 29 30 31 32 33 34 35 36 37 38 39 40 41 42 43 44 45 46 47 48 49 50
000
ASUS43 KGRB 030659
RWRGRB

NORTH-CENTRAL AND NORTHEAST WISCONSIN REGIONAL WEATHER ROUNDUP
NATIONAL WEATHER SERVICE GREEN BAY WI
100 AM CST TUE MAR 03 2015

WIZ005-009-010>012-018-019-030800-
NORTH CENTRAL WISCONSIN

CITY           SKY/WX    TMP DP  RH WIND       PRES   REMARKS
IRONWOOD       CLOUDY    21   7  53 S12G18    29.97F WCI   9
MANITOWISH WTR NOT AVBL
ARBOR VITAE    NOT AVBL
EAGLE RIVER    NOT AVBL
LAND O LAKES   NOT AVBL
RHINELANDER    CLOUDY    20   6  55 S10       30.03F WCI   9
PHILLIPS       CLOUDY    20   7  56 S9        30.02S WCI  10
ANTIGO         NOT AVBL
TOMAHAWK       NOT AVBL
MERRILL        NOT AVBL
$$

WIZ013-073-030800-
NORTHEAST WISCONSIN

CITY           SKY/WX    TMP DP  RH WIND       PRES   REMARKS
IRON MOUNTAIN  MOCLDY    18   6  59 SE6       30.07F WCI  10
MARINETTE      CLOUDY    21  14  73 S8        30.14F
$$

WIZ017-030-035>037-045-030800-
CENTRAL WISCONSIN

CITY           SKY/WX    TMP DP  RH WIND       PRES   REMARKS
MEDFORD        NOT AVBL
WAUSAU         CLOUDY    22  11  62 S14       30.07F WCI   9
MOSINEE        NOT AVBL
MARSHFIELD     CLOUDY    21  17  84 S7        30.08F
WISC RAPIDS    CLOUDY    21  15  78 CALM      30.12F
STEVENS POINT  NOT AVBL
WAUPACA        NOT AVBL
SHAWANO        NOT AVBL
CLINTONVILLE   CLOUDY    25  14  63 S9        30.15S
$$

WIZ038-039-048-051-030800-
FOX VALLEY

CITY           SKY/WX    TMP DP  RH WIND       PRES   REMARKS
NWS GREEN BAY  CLOUDY    25  15  66 S9        30.17F
APPLETON       NOT AVBL
OSHKOSH        CLOUDY    23  17  78 S6        30.15F
FOND DU LAC    CLOUDY    24  15  68 S7        30.16F
$$

WIZ022-050-052-030800-
EAST CENTRAL WISCONSIN

CITY           SKY/WX    TMP DP  RH WIND       PRES   REMARKS
STURGEON BAY   CLOUDY    23  16  74 S9        30.18F
MANITOWOC      NOT AVBL
SHEBOYGAN      LGT SNOW  22  20  92 SW3       30.18F FOG
$$

LMZ563-521-522-541>543-030800-
LAKESHORE

STATION/POSITION TIME  TEMP    WIND        PRES    VSBY  WAVE
                       AIR SEA DIR/SP/G                  HT/PER
                 (UTC) (F)     (DEG/KT/KT) (MB)    (MI)  (FT/S)
SHEBOYGAN LKSHOR 0600   26     200/ 11/ 12 1024.4F
KEWAUNEE LKSHORE 0600   26     200/  7/ 10   N/A
NORTHPORT PIER   0600   23     200/  4/  9 1022.7F
SISTER BAY LKSHO 0600   24     190/ 14/ 18   N/A
CHAMBERS ISLAND  0600   22     170/  5/ 10 1021.7F
MENOMINEE LKSHOR 0600   20     170/  5       N/A
$$



USA.gov is the U.S. government's official web portal to all federal, state and local government web resources and services.